STARLINK-35465

Last updated on Mon Oct 20 2025 00:02:07 GMT+0000 (Coordinated Universal Time)

1 65871U 25223T 25292.25002315 -.01906972 00000+0 -21792-1 0 9996 2 65871 53.1599 234.9461 0001275 89.7562 34.3399 15.64690039 3739
UTC large
Height (km)
Speed (km/s)
/
Latitude / Longitude
Inclination (degrees)
Orbital Period (minutes)
Azimuth
Elevation
Range (km)
Doppler Factor

Next 0 passes for location: London (51.5072 / 0.1276)

Sorry there are no passes over London.